[Date Prev][Date Next][Thread Prev][Thread Next] - [Date Index][Thread Index][Author Index]
2 Line ISS Keps 10-16
- Subject: [sarex] 2 Line ISS Keps 10-16
- From: "Dave Larsen PhD" <doc@xxxxxxxxxxx>
- Date: Wed, 16 Oct 2002 04:39:18 -0700
ISS
1 25544U 98067A 02288.91666667 .00048614 00000-0 61630-3 0 2666
2 25544 51.6347 166.5948 0019459 6.7944 124.4947 15.58737080222860
----
Via the sarex mailing list at AMSAT.ORG courtesy of AMSAT-NA.
To unsubscribe, send "unsubscribe sarex" to Majordomo@amsat.org
AMSAT Home